This demonstration page uses our WeatherBlox Daily Observations layout. Learn more.

36.17497, -115.13722

Hourly Observations for April 6, 2015

Temp ( °F °C ) Dew Point ( °F °C ) Humidity (%) Winds ( mph kmh ) Pressure ( in mb ) Visibility ( mi km ) Precip ( " mm )
12:53 am 00:53 Clear 63 17.2 27 -2.8 26 26 SSW 18 30 29.69 1005 10 16.0934 0 0
1:53 am 01:53 Clear 61 16.1 26 -3.3 26 26 S 15 24 29.7 1006 10 16.0934 0 0
2:53 am 02:53 Clear 59 15 26 -3.3 28 28 S 17 28 29.71 1006 10 16.0934 0 0
3:53 am 03:53 Clear 58 14.4 25 -3.9 28 28 S 20 31 29.72 1007 10 16.0934 0 0
4:53 am 04:53 Clear 57 13.9 26 -3.3 30 30 S 20 31 29.71 1006 10 16.0934 0 0
5:53 am 05:53 Clear 55 12.8 27 -2.8 34 34 S 16 26 29.72 1007 10 16.0934 0 0
6:53 am 06:53 Sunny 56 13.3 27 -2.8 33 33 SSW 21 33 29.74 1007 10 16.0934 0 0
7:53 am 07:53 Sunny 58 14.4 26 -3.3 29 29 S 22 35 29.76 1008 10 16.0934 0 0
8:53 am 08:53 Sunny 63 17.2 18 -7.8 17 17 SW 20 31 29.78 1009 10 16.0934 0 0
9:53 am 09:53 Sunny 65 18.3 17 -8.3 16 16 W 18 30 29.8 1009 10 16.0934 0 0
10:53 am 10:53 Sunny 67 19.4 17 -8.3 15 15 SW 23 37 29.81 1010 10 16.0934 0 0
11:53 am 11:53 Sunny 67 19.4 16 -8.9 14 14 SW 18 30 29.82 1010 10 16.0934 0 0
12:53 pm 12:53 Sunny 70 21.1 16 -8.9 12 12 S 22 35 29.8 1009 10 16.0934 0 0
1:53 pm 13:53 Sunny 72 22.2 7 -13.9 8 8 SSW 23 37 29.78 1008 10 16.0934 0 0
2:53 pm 14:53 Sunny 72 22.2 3 -16.1 6 6 SW 21 33 29.76 1008 10 16.0934 0 0
3:53 pm 15:53 Sunny 72 22.2 -3 -19.4 5 5 SW 20 31 29.77 1008 10 16.0934 0 0
4:53 pm 16:53 Sunny 71 21.7 5 -15 7 7 SW 21 33 29.75 1008 10 16.0934 0 0
5:53 pm 17:53 Sunny 70 21.1 9 -12.8 9 9 WSW 20 31 29.76 1008 10 16.0934 0 0
6:53 pm 18:53 Sunny 68 20 10 -12.2 10 10 WSW 20 31 29.76 1008 10 16.0934 0 0
7:53 pm 19:53 Clear 67 19.4 19 -7.2 16 16 SW 14 22 29.77 1008 10 16.0934 0 0
8:53 pm 20:53 Clear 66 18.9 18 -7.8 16 16 W 12 19 29.77 1008 10 16.0934 0 0
9:53 pm 21:53 Clear 64 17.8 19 -7.2 18 18 W 6 9 29.78 1008 10 16.0934 0 0
10:53 pm 22:53 Clear 62 16.7 19 -7.2 19 19 SSW 8 13 29.78 1008 10 16.0934 0 0
11:53 pm 23:53 Clear 62 16.7 14 -10 15 15 WSW 9 15 29.79 1009 10 16.0934 0 0

Powered by AerisWeather